Flag for United Kingdom Weather past 2 weeks in Cheltenham, England, United Kingdom

Now
33 °F

Chilly.


Feels Like: 24 °F
Forecast: 32 / 48 °F
Wind: 10 mph from Northwest

Location: Little Rissington

Current Time: Feb 27, 2015 at 6:31:40 AM

Latest Report: Feb 27, 2015 at 5:00 AM


Visibility: 10 mi

Pressure: 30.08 "Hg

Humidity: 89%

Dew point: 30 °F

Location of CheltenhamLocation

Historic Weather in Cheltenham — Graph

°F

Cheltenham temperature yesterday

Maximum temperature yesterday: 50 °F (at 11:00 AM)
Minimum temperature yesterday: 33 °F (at 10:00 PM)
Average temperature yesterday: 44 °F

Past Weeks' High & Low Weather Summary

 TemperatureHumidityPressure
High51 °F (Feb 25, 3:00 PM)100% (Feb 13, 6:00 AM)30.74 "Hg (Feb 13, 6:00 AM)
Low28 °F (Feb 22, 6:00 AM)55% (Feb 24, 2:00 PM)29.18 "Hg (Feb 22, 10:00 PM)
Average39 °F91%29.86 "Hg
* Reported Feb 12 5:00 AM — Feb 27 5:00 AM, Cheltenham, Weather by CustomWeather, © 2015

Note: Actual official high and low records may vary slightly from our data, if they occured in-between our weather recording intervals... More about our weather records

Advertising

Cheltenham weather history for previous 24 hours

 ConditionsComfort  
Time TempWeatherWind HumidityBarometerVisibility
5:00 AM
Fri, Feb 27
33 °FChilly.10 mph89%30.08 "Hg10 mi
4:00 AM33 °FChilly.9 mph88%30.07 "Hg10 mi
1:00 AM33 °FChilly.10 mph88%30.04 "Hg10 mi
12:00 AM33 °FChilly.8 mph88%30.03 "Hg10 mi
11:00 PM
Thu, Feb 26
33 °FChilly.8 mph85%30.02 "Hg10 mi
10:00 PM33 °FChilly.6 mph83%30.01 "Hg10 mi
9:00 PM34 °FChilly.9 mph77%29.99 "Hg11 mi
8:00 PM36 °FChilly.10 mph70%29.98 "Hg12 mi
7:00 PM37 °FChilly.13 mph73%29.96 "Hg11 mi
6:00 PM40 °FChilly.13 mph65%29.94 "Hg25 mi
5:00 PM42 °FQuite cool.15 mph66%29.90 "Hg19 mi
4:00 PM44 °FQuite cool.17 mph72%29.87 "Hg19 mi
3:00 PM44 °FQuite cool.21 mph82%29.85 "Hg19 mi
2:00 PM45 °FCool.14 mph95%29.84 "Hg16 mi
1:00 PM44 °FQuite cool.18 mph100%29.82 "Hg16 mi
12:00 PM49 °FCool.16 mph100%29.79 "Hg6 mi
11:00 AM50 °FCool.15 mph100%29.78 "Hg2 mi
10:00 AM49 °FCool.17 mph100%29.77 "Hg2 mi
9:00 AM48 °FCool.20 mph100%29.78 "Hg3 mi
8:00 AM48 °FCool.18 mph100%29.80 "Hg0 mi
7:00 AM48 °FCool.18 mph100%29.82 "Hg1 mi
6:00 AM48 °FCool.18 mph100%29.84 "Hg2 mi
Weather by CustomWeather, © 2015

See weather overviewHow to use our weather pages